James M Cox Dayton International Airport Dayton US
ICAO: KDAY
IATA: DAY
Category: Large
Scheduled Services: Yes

Elevation: 1009 ft
TransAlt. 18000 ft.

Airport Communications:
DAYTON APP/DEP:118
ATIS:125.8
CLNC DEL:121.75
GND:121.9
DAYTON RDO:122.2
DAYTON TWR:119.9
UNICOM:122.95

KDAY Zoom In..

If Map Doesn't Load, Click Here

Runways:

(A) RW 06L length 10901 ft width 150 ft
ILS 108.90 / hdg 59

(B) RW 06R length 7285 ft width 150 ft
---- / hdg 59

(C) RW 18 length 8502 ft width 150 ft
ILS 108.30 / hdg 183

(D) RW 24L length 7285 ft width 150 ft
ILS 110.30 / hdg 239

(E) RW 24R length 10901 ft width 150 ft
ILS 111.90 / hdg 239

(F) RW 36 length 8502 ft width 150 ft
---- / hdg 3

Location; KDAY
Day. 21 / Time. 14.56 Zulu
* Altimeter: 30.02
* Temperature: 27° c. 80.6°f.
* Wind from: 220° Speed 14 kn.
Dewpoint: 21° c.
Visibility: 10 Statute Miles.
Clouds: Few 12000 ft.

KDAY 211456Z 22014KT 10SM FEW120 27/21 A3002 RMK AO2 SLP155 T02720206 53004


Wind From 220°
Speed 14 kn.

 
 
jpsmedia.com for Web Design worldairports.se 2018   terms of use